Tracking 19149 objects as of 22-Apr-2018
HD Live streaming from Space Station
objects crossing your sky now

FENGYUN 1C DEB

Track FENGYUN 1C DEB now!
10-day predictions


NORAD ID: 33683
Int'l Code: 1999-025DFU
Perigee: 713.3 km
Apogee: 819.6 km
Inclination: 98.3 °
Period: 100.0 minutes
Semi major axis: 7137 km
RCS: 0.0034 m2 (small)
Launch date: May 10, 1999
Source: People's Republic of China (PRC)
Launch site: Taiyaun Space Center, China (TSC)

Note: This is SATELLITE DEBRIS
aabbcc
Your satellite tracking list
Your tracking list is empty




NASA's NSSDC Master Catalog

Two Line Element Set (TLE):
1 33683U 99025DFU 18111.60926939  .00001387  00000-0  44205-3 0  9991
2 33683  98.3209 346.3349 0074458  12.0110 348.2832 14.39745444526807
Source of the keplerian elements: AFSPC